Home > Weather > Halton Hills > Past weeks

Flag for Canada Past Weather in Halton Hills, Ontario, Canada — Yesterday and Last 2 Weeks

Now
81 °F

Passing clouds.


Feels Like: 80 °F
Forecast: N/A
Wind: 9 mph from Southeast

Location: Toronto Pearson International Airport

Current Time: Jun 24, 2016 at 6:05:26 PM

Latest Report: Jun 24, 2016 at 5:00 PM


Visibility: 15 mi

Pressure: 30.08 "Hg

Humidity: 30%

Dew Point: 46 °F

Location of Halton HillsLocation

Past Weather in Halton Hills — Graph

°F

Halton Hills Temperature Yesterday

Maximum temperature yesterday: 73 °F (at 5:00 PM)
Minimum temperature yesterday: 55 °F (at 5:00 AM)
Average temperature yesterday: 66 °F

High & Low Weather Summary for the Past Weeks

 TemperatureHumidityPressure
High93 °F (Jun 20, 2:00 PM)94% (Jun 11, 7:00 AM)30.27 "Hg (Jun 11, 7:00 AM)
Low48 °F (Jun 10, 4:00 AM)17% (Jun 14, 8:00 PM)29.70 "Hg (Jun 11, 9:00 PM)
Average69 °F46%29.96 "Hg
* Reported Jun 9 5:00 PM — Jun 24 5:00 PM, Halton Hills, Weather by CustomWeather, © 2016

Note: Actual official high and low records may vary slightly from our data, if they occured in-between our weather recording intervals... More about our weather records

Advertising

Halton Hills Weather History for the Previous 24 Hours

Scroll right to see more
 ConditionsComfort  
Time TempWeatherWind HumidityBarometerVisibility
5:00 PM
Fri, Jun 24
81 °FPassing clouds.9 mph30%30.08 "Hg15 mi
4:00 PM81 °FScattered clouds.7 mph30%30.09 "Hg15 mi
3:00 PM79 °FScattered clouds.9 mph32%30.09 "Hg30 mi
2:00 PM79 °FScattered clouds.10 mph32%30.07 "Hg15 mi
1:00 PM79 °FScattered clouds.10 mph34%30.08 "Hg15 mi
12:00 PM77 °FPassing clouds.8 mph39%30.09 "Hg15 mi
11:00 AM77 °FPassing clouds.3 mph39%30.09 "Hg15 mi
10:00 AM75 °FSunny.5 mph39%30.08 "Hg15 mi
9:00 AM70 °FSunny.2 mph50%30.08 "Hg15 mi
8:00 AM64 °FPassing clouds.7 mph56%30.07 "Hg15 mi
7:00 AM61 °FPassing clouds.8 mph59%30.06 "Hg15 mi
6:00 AM59 °FClear.9 mph63%30.03 "Hg15 mi
5:00 AM57 °FPassing clouds.7 mph67%30.02 "Hg15 mi
4:00 AM59 °FClear.8 mph63%30.01 "Hg15 mi
3:00 AM59 °FClear.3 mph59%30.00 "Hg15 mi
2:00 AM61 °FClear.9 mph55%29.99 "Hg15 mi
1:00 AM63 °FClear.8 mph49%29.98 "Hg15 mi
12:00 AM64 °FClear.7 mph46%29.99 "Hg15 mi
11:00 PM
Thu, Jun 23
66 °FClear.9 mph46%29.98 "Hg15 mi
10:00 PM68 °FSunny.7 mph40%29.98 "Hg15 mi
9:00 PM68 °FSunny.5 mph40%29.94 "Hg15 mi
8:00 PM70 °FSunny.8 mph35%29.91 "Hg15 mi
7:00 PM73 °FSunny.9 mph33%29.90 "Hg15 mi
6:00 PM73 °FScattered clouds.2 mph33%29.90 "Hg15 mi
Weather by CustomWeather, © 2016

See weather overviewHow to use our weather pages